TimeAST,TemperatureF,Dew PointF,Humidity,Sea Level PressureIn,VisibilityMPH,Wind Direction,Wind SpeedMPH,Gust SpeedMPH,PrecipitationIn,Events,Conditions,WindDirDegrees,DateUTC
12:00 AM,78.8,73.4,83,29.95,6.2,East,15.0,-,N/A,,Scattered Clouds,100,2013-02-01 04:00:00
1:00 AM,78.8,71.6,78,29.92,6.2,ESE,12.7,-,N/A,,Scattered Clouds,110,2013-02-01 05:00:00
2:00 AM,79,72,75,,16,ESE,13.8,,,,Partly Cloudy,110,2013-02-01 06:00:00
2:00 AM,78.8,71.6,78,29.92,6.2,ESE,13.8,-,N/A,,Scattered Clouds,110,2013-02-01 06:00:00
3:00 AM,77.0,73.4,89,29.92,6.2,ESE,16.1,-,N/A,,Scattered Clouds,110,2013-02-01 07:00:00
4:00 AM,78.8,71.6,78,29.89,6.2,East,16.1,-,N/A,,Partly Cloudy,100,2013-02-01 08:00:00
5:00 AM,79,72,74,29.91,16,East,15.0,,,,Scattered Clouds,100,2013-02-01 09:00:00
5:00 AM,78.8,73.4,83,29.92,6.2,East,15.0,-,N/A,,Partly Cloudy,100,2013-02-01 09:00:00
6:00 AM,78.8,71.6,78,29.92,6.2,East,15.0,-,N/A,,Scattered Clouds,100,2013-02-01 10:00:00
7:00 AM,78.8,71.6,78,29.92,6.2,East,15.0,-,N/A,,Scattered Clouds,90,2013-02-01 11:00:00
8:00 AM,80,72,70,29.96,16,East,16.1,,,,Partly Cloudy,90,2013-02-01 12:00:00
8:00 AM,80.6,71.6,74,29.95,6.2,East,15.0,-,N/A,,Scattered Clouds,100,2013-02-01 12:00:00
9:00 AM,80.6,71.6,74,29.98,6.2,East,16.1,-,N/A,,Scattered Clouds,100,2013-02-01 13:00:00
10:00 AM,84.2,71.6,66,29.98,6.2,East,15.0,-,N/A,,Scattered Clouds,100,2013-02-01 14:00:00
11:00 AM,84,72,59,29.99,16,ESE,16.1,,,Rain,Light Rain Showers,110,2013-02-01 15:00:00
11:00 AM,86.0,73.4,66,29.98,6.2,East,15.0,-,N/A,,Scattered Clouds,100,2013-02-01 15:00:00
12:00 PM,86.0,71.6,62,29.98,6.2,East,12.7,-,N/A,,Scattered Clouds,90,2013-02-01 16:00:00
1:00 PM,86.0,71.6,62,29.95,6.2,East,15.0,-,N/A,,Scattered Clouds,100,2013-02-01 17:00:00
2:00 PM,85,72,58,29.94,16,East,17.3,,,,Partly Cloudy,100,2013-02-01 18:00:00
2:00 PM,84.2,71.6,66,29.92,6.2,East,12.7,-,N/A,,Scattered Clouds,100,2013-02-01 18:00:00
3:00 PM,84.2,71.6,66,29.92,6.2,East,17.3,-,N/A,,Scattered Clouds,90,2013-02-01 19:00:00
4:00 PM,80.6,69.8,70,29.92,6.2,East,15.0,-,N/A,,Scattered Clouds,80,2013-02-01 20:00:00
5:00 PM,82,72,65,29.91,16,East,9.2,,,,Partly Cloudy,100,2013-02-01 21:00:00
5:00 PM,82.4,71.6,70,29.89,6.2,East,9.2,-,N/A,,Scattered Clouds,100,2013-02-01 21:00:00
6:00 PM,78.8,69.8,74,29.92,6.2,ESE,9.2,-,N/A,,Scattered Clouds,120,2013-02-01 22:00:00
7:00 PM,78.8,69.8,74,29.92,6.2,ESE,10.4,-,N/A,,Partly Cloudy,120,2013-02-01 23:00:00
8:00 PM,79,70,68,29.94,16,SE,6.9,,,,Partly Cloudy,130,2013-02-02 00:00:00
8:00 PM,78.8,69.8,74,29.92,6.2,ESE,10.4,-,N/A,,Partly Cloudy,120,2013-02-02 00:00:00
9:00 PM,78.8,69.8,74,29.95,6.2,ESE,13.8,-,N/A,,Partly Cloudy,110,2013-02-02 01:00:00
10:00 PM,78.8,71.6,78,29.98,6.2,East,12.7,-,N/A,,Partly Cloudy,100,2013-02-02 02:00:00
11:00 PM,79,72,73,29.98,16,East,12.7,,,,Partly Cloudy,90,2013-02-02 03:00:00
11:00 PM,78.8,71.6,78,29.98,6.2,East,13.8,-,N/A,,Scattered Clouds,90,2013-02-02 03:00:00